Home   Weather   Timișoara   Past weeks

Flag for Romania Past Weather in Timișoara, Romania — Yesterday and Last 2 Weeks

Now
45 °F

Clear.


Feels Like: 41 °F
Forecast: 50 / 76 °F
Wind: 6 mph from Southeast

Location: Timisoara Airport

Current Time: Sep 29, 2016 at 6:31:58 AM

Latest Report: Sep 29, 2016 at 5:30 AM


Visibility: 10 mi

Pressure: 30.33 "Hg

Humidity: 93%

Dew Point: 43 °F

Location of TimișoaraLocation

Past Weather in Timișoara — Graph

°F

Timișoara Temperature Yesterday

Maximum temperature yesterday: 73 °F (at 4:00 PM)
Minimum temperature yesterday: 43 °F (at 6:00 AM)
Average temperature yesterday: 57 °F

High & Low Weather Summary for the Past Weeks

 TemperatureHumidityPressure
High86 °F (Sep 16, 4:00 PM)94% (Sep 14, 6:00 AM)30.42 "Hg (Sep 14, 6:00 AM)
Low41 °F (Sep 23, 5:30 AM)29% (Sep 16, 5:30 PM)29.65 "Hg (Sep 19, 6:00 PM)
Average61 °F72%30.06 "Hg
* Reported Sep 14 5:00 AM — Sep 29 5:30 AM, Timișoara, Weather by CustomWeather, © 2016

Note: Actual official high and low records may vary slightly from our data, if they occured in-between our weather recording intervals... More about our weather records

Advertising

Timișoara Weather History for the Previous 24 Hours

Scroll right to see more
 ConditionsComfort  
Time TempWeatherWind HumidityBarometerVisibility
5:30 AM
Thu, Sep 29
45 °FClear.6 mph93%30.33 "Hg10 mi
5:00 AM45 °FClear.5 mph93%30.33 "Hg10 mi
4:30 AM46 °FClear.5 mph87%30.33 "Hg10 mi
4:00 AM46 °FClear.5 mph93%30.33 "Hg10 mi
3:30 AM46 °FClear.3 mph93%30.33 "Hg10 mi
3:00 AM46 °FClear.5 mph93%30.33 "Hg10 mi
2:30 AM46 °FClear.3 mph93%30.36 "Hg10 mi
2:00 AM48 °FClear.5 mph87%30.36 "Hg10 mi
1:30 AM48 °FClear.5 mph94%30.36 "Hg10 mi
1:00 AM48 °FClear.6 mph94%30.36 "Hg10 mi
12:30 AM50 °FClear.5 mph88%30.36 "Hg10 mi
12:00 AM50 °FClear.6 mph94%30.36 "Hg10 mi
11:30 PM
Wed, Sep 28
52 °FClear.5 mph82%30.36 "Hg10 mi
11:00 PM52 °FClear.2 mph82%30.36 "Hg10 mi
10:30 PM54 °FClear.1 mph77%30.33 "Hg10 mi
10:00 PM55 °FClear.2 mph72%30.36 "Hg10 mi
9:30 PM57 °FClear.No wind67%30.36 "Hg10 mi
9:00 PM59 °FClear.1 mph59%30.36 "Hg10 mi
8:30 PM61 °FClear.No wind55%30.36 "Hg10 mi
8:00 PM63 °FClear.2 mph52%30.33 "Hg10 mi
7:30 PM64 °FClear.3 mph49%30.33 "Hg10 mi
7:00 PM68 °FSunny.2 mph40%30.33 "Hg10 mi
6:30 PM72 °FSunny.No wind36%30.33 "Hg10 mi
6:00 PM72 °FSunny.No wind31%30.33 "Hg10 mi
5:30 PM73 °FSunny.1 mph31%30.33 "Hg10 mi
5:00 PM72 °FSunny.2 mph33%30.33 "Hg10 mi
4:30 PM72 °FPassing clouds.5 mph31%30.36 "HgN/A
4:00 PM73 °FPassing clouds.5 mph31%30.36 "HgN/A
3:30 PM72 °FPassing clouds.5 mph31%30.36 "HgN/A
3:00 PM72 °FPassing clouds.3 mph31%30.36 "HgN/A
2:30 PM72 °FPassing clouds.3 mph33%30.39 "HgN/A
2:00 PM70 °FPassing clouds.5 mph38%30.39 "HgN/A
1:30 PM70 °FPassing clouds.3 mph43%30.42 "HgN/A
1:00 PM68 °FSunny.2 mph46%30.39 "Hg10 mi
12:30 PM66 °FSunny.3 mph52%30.39 "Hg10 mi
12:00 PM64 °FPassing clouds.3 mph60%30.42 "HgN/A
11:30 AM61 °FPassing clouds.3 mph68%30.42 "HgN/A
11:00 AM59 °FPassing clouds.3 mph72%30.42 "HgN/A
10:30 AM55 °FSunny.3 mph82%30.42 "Hg10 mi
10:00 AM54 °FSunny.7 mph82%30.39 "Hg10 mi
9:30 AM52 °FSunny.7 mph88%30.42 "Hg10 mi
9:00 AM48 °FSunny.7 mph94%30.39 "Hg10 mi
8:30 AM46 °FClear.5 mph87%30.39 "Hg5 mi
8:00 AM43 °FFog.5 mph87%30.39 "Hg3 mi
7:30 AM43 °FClear.5 mph93%30.39 "Hg4 mi
7:00 AM43 °FClear.5 mph93%30.39 "Hg5 mi
6:30 AM43 °FClear.5 mph93%30.36 "Hg10 mi
6:00 AM43 °FClear.5 mph93%30.36 "Hg10 mi
Weather by CustomWeather, © 2016

See weather overviewHow to use our weather pages